Content
SEND FEEDBACK

Daily
Averages
Monthly
Summary
United States of America

SOUTH LAKE TAHOE - AIRPORT, CALIFORNIA


Home > North America > United States > California
Elevation: 6250 feet     Latitude: 38 54N     Longitude: 120 00W

WEATHER
 
SELECT A DAY
Number of Records: 177,773;   Date Range: 1/1/95 - 11/21/14
 
SHARE

PRINT THIS DATA

[ ← Previous Day ]
WEATHER ALMANAC - APRIL 30, 2013
[ Next Day → ]
[ °C ]   °F
Weather ElementAverageHighLow
Temperature52.4 °F64.9 °F (2:53 pm)39 °F (4:53 am)
Dewpoint26.3 °F42.1 °F (7:53 am)-6 °F (11:53 pm)
Humidity42.9 %79 % (4:53 am)11 % (11:53 pm)
Barometer29.88 in30.05 in (11:53 pm)29.80 in (5:53 am)
Wind Speed5.7 mph11.5 mph (11:53 am)
Wind Gust21.9 mph (10:53 pm)
Weather ElementAverage
Visibility10 mi
Wind DirectionNE (42.7 °)

Weather ElementTotal
Precipitation---
Heating Degree Days13.1 (Base 65)
Growing Degree Days2 (Base 50)
Averaged from 22 records on April 30, 2013
WEATHER CONDITIONS BREAKOUT
WIND DIRECTION BREAKOUT
WEATHER BY HOUR - APRIL 30, 2013
[ °C ]   °F
Local TimeTemperatureDewpointHumidityBarometerVisibilityWind DirectionWind SpeedGust SpeedPrecipitationEventsConditions
1:53 AM43.0 °F33.1 °F68 %29.81 in10.0 miCalmClear
2:53 AM42.1 °F33.1 °F70 %29.81 in10.0 miSSW (210°)3.5 mphClear
3:53 AM39.9 °F33.1 °F77 %29.81 in10.0 miSouth (180°)5.8 mphClear
4:53 AM39.0 °F33.1 °F79 %29.81 in10.0 miCalmClear
5:53 AM39.9 °F33.1 °F77 %29.80 in10.0 miCalmClear
6:53 AM41.0 °F35.1 °F79 %29.83 in10.0 miCalmClear
7:53 AM52.0 °F42.1 °F69 %29.83 in10.0 miVariable3.5 mphPartly Cloudy
8:53 AM53.1 °F36.0 °F52 %29.84 in10.0 miEast (90°)3.5 mphClear
9:53 AM57.0 °F37.9 °F49 %29.83 in10.0 miNNE (20°)8.1 mph19.6 mphClear
10:53 AM59.0 °F32.0 °F36 %29.87 in10.0 miVariable6.9 mphClear
11:53 AM57.9 °F28.9 °F33 %29.89 in10.0 miNNE (30°)11.5 mph16.1 mphClear
12:53 PM61.0 °F28.9 °F30 %29.88 in10.0 miNE (40°)6.9 mphClear
1:53 PM64.0 °F32.0 °F30 %29.87 in10.0 miNNE (30°)11.5 mph17.3 mphClear
2:53 PM64.9 °F33.1 °F31 %29.87 in10.0 miNNE (30°)8.1 mphClear
3:53 PM64.0 °F32.0 °F30 %29.87 in10.0 miNE (40°)5.8 mphClear
4:53 PM64.9 °F30.0 °F27 %29.87 in10.0 miNNE (20°)5.8 mphClear
6:53 PM60.1 °F18.0 °F20 %29.91 in10.0 miVariable4.6 mphMostly Cloudy
7:53 PM55.9 °F14.0 °F19 %29.92 in10.0 miEast (100°)9.2 mphClear
8:53 PM48.9 °F18.0 °F29 %29.98 in10.0 miCalmPartly Cloudy
9:53 PM51.1 °F3.0 °F14 %29.99 in10.0 miNE (40°)10.4 mph20.7 mphClear
10:53 PM48.0 °F-0.9 °F13 %30.02 in10.0 miNE (50°)11.5 mph21.9 mphClear
11:53 PM46.9 °F-6.0 °F11 %30.05 in10.0 miENE (60°)9.2 mph19.6 mphClear
Hourly data recorded from KTVL, located miles away from South Lake Tahoe - Airport, California







STORIES FROM OUR PARTNERS